Location: Guayaquil
(2.1667°S, 79.9000°W)
Time: 09:37:39
(UTC-05:00)

N. Korean satellite - Visible Passes

Search period start: 12 December 2018 00:00
Search period end: 22 December 2018 00:00
Orbit: 456 x 511 km, 97.2° (Epoch: 11 December)

Date Brightness Start Highest point End Pass type
(mag) Time Alt. Az. Time Alt. Az. Time Alt. Az.
12 Dec 8.4 18:36:46 10° S 18:40:02 36° WSW 18:43:14 10° NNW visible
15 Dec 9.7 05:36:52 10° NE 05:39:40 21° ESE 05:42:30 10° SSE visible
15 Dec 9.7 18:57:21 10° SW 18:59:39 17° WSW 19:01:58 10° WNW visible
19 Dec 9.8 05:32:17 10° ENE 05:34:50 18° ESE 05:37:24 10° SE visible
19 Dec 9.6 18:52:11 10° SSW 18:54:46 20° WSW 18:57:20 10° NW visible
